owner,sensor,date,latitude,longitude,vertical_datum,wind_speed,wind_to_direction,wind_speed_of_gust,qcFlag 
DISL,ioos:station:DISL:CATA:1,2019-03-01T00:00:00Z,30.3085,-88.1395,0.0,3.8,173.0,99.0,'11111222,11111222,11144222' 
DISL,ioos:station:DISL:CATA:1,2019-03-01T00:30:00Z,30.3085,-88.1395,0.0,5.0,191.0,99.0,'11111222,11111222,11144222' 
DISL,ioos:station:DISL:CATA:1,2019-03-01T01:00:00Z,30.3085,-88.1395,0.0,5.1,230.0,99.0,'11111222,11111222,11144222' 
DISL,ioos:station:DISL:CATA:1,2019-03-01T01:30:00Z,30.3085,-88.1395,0.0,6.8,260.0,99.0,'11111222,11111222,11144222' 
DISL,ioos:station:DISL:CATA:1,2019-03-01T02:00:00Z,30.3085,-88.1395,0.0,6.3,281.0,99.0,'11111222,11111222,11144222' 
DISL,ioos:station:DISL:CATA:1,2019-03-01T02:30:00Z,30.3085,-88.1395,0.0,1.5,319.0,99.0,'11111222,11111222,11144222' 
DISL,ioos:station:DISL:CATA:1,2019-03-01T03:00:00Z,30.3085,-88.1395,0.0,2.8,153.0,99.0,'11111222,11111222,11144222' 
DISL,ioos:station:DISL:CATA:1,2019-03-01T03:30:00Z,30.3085,-88.1395,0.0,1.9,183.0,99.0,'11111222,11111222,11144222' 
DISL,ioos:station:DISL:CATA:1,2019-03-01T03:40:00Z,30.3085,-88.1395,0.0,1.67,183.0,-9999.0,'1111122,1111122,1111122' 
DISL,ioos:station:DISL:CATA:1,2019-03-01T04:00:00Z,30.3085,-88.1395,0.0,0.5,68.0,99.0,'11111222,11111222,11144222' 
DISL,ioos:station:DISL:CATA:1,2019-03-01T04:30:00Z,30.3085,-88.1395,0.0,2.0,8.0,99.0,'11111222,11111222,11144222' 
DISL,ioos:station:DISL:CATA:1,2019-03-01T04:40:00Z,30.3085,-88.1395,0.0,1.71,262.2,-9999.0,'1111122,1111122,1111122' 
DISL,ioos:station:DISL:CATA:1,2019-03-01T05:00:00Z,30.3085,-88.1395,0.0,1.2,190.0,99.0,'11111222,11111222,11144222' 
DISL,ioos:station:DISL:CATA:1,2019-03-01T05:30:00Z,30.3085,-88.1395,0.0,1.1,35.0,99.0,'11111222,11111222,11144222' 
DISL,ioos:station:DISL:CATA:1,2019-03-01T05:40:00Z,30.3085,-88.1395,0.0,1.66,64.55,-9999.0,'1111122,1111122,1111122' 
DISL,ioos:station:DISL:CATA:1,2019-03-01T06:30:00Z,30.3085,-88.1395,0.0,1.7,108.0,99.0,'11111222,11111222,11144222' 
DISL,ioos:station:DISL:CATA:1,2019-03-01T06:40:00Z,30.3085,-88.1395,0.0,2.83,105.9,-9999.0,'1111122,1111122,1111122' 
DISL,ioos:station:DISL:CATA:1,2019-03-01T07:00:00Z,30.3085,-88.1395,0.0,1.5,155.0,99.0,'11111222,11111222,11144222' 
DISL,ioos:station:DISL:CATA:1,2019-03-01T07:30:00Z,30.3085,-88.1395,0.0,4.1,153.0,99.0,'11111222,11111222,11144222' 
DISL,ioos:station:DISL:CATA:1,2019-03-01T07:40:00Z,30.3085,-88.1395,0.0,4.66,146.4,-9999.0,'1111122,1111122,1111122' 
DISL,ioos:station:DISL:CATA:1,2019-03-01T08:00:00Z,30.3085,-88.1395,0.0,4.3,156.0,99.0,'11111222,11111222,11144222' 
DISL,ioos:station:DISL:CATA:1,2019-03-01T08:30:00Z,30.3085,-88.1395,0.0,4.0,184.0,99.0,'11111222,11111222,11144222' 
DISL,ioos:station:DISL:CATA:1,2019-03-01T08:40:00Z,30.3085,-88.1395,0.0,3.77,193.1,-9999.0,'1111122,1111122,1111122' 
DISL,ioos:station:DISL:CATA:1,2019-03-01T09:00:00Z,30.3085,-88.1395,0.0,1.0,248.0,99.0,'11111222,11111222,11144222' 
DISL,ioos:station:DISL:CATA:1,2019-03-01T09:30:00Z,30.3085,-88.1395,0.0,3.6,359.0,99.0,'11111222,11111222,11144222' 
DISL,ioos:station:DISL:CATA:1,2019-03-01T09:40:00Z,30.3085,-88.1395,0.0,3.06,48.55,-9999.0,'1111122,1111122,1111122' 
DISL,ioos:station:DISL:CATA:1,2019-03-01T10:00:00Z,30.3085,-88.1395,0.0,0.9,180.0,99.0,'11111222,11111222,11144222' 
DISL,ioos:station:DISL:CATA:1,2019-03-01T10:30:00Z,30.3085,-88.1395,0.0,2.2,29.0,99.0,'11111222,11111222,11144222' 
DISL,ioos:station:DISL:CATA:1,2019-03-01T10:40:00Z,30.3085,-88.1395,0.0,1.82,68.51,-9999.0,'1111122,1111122,1111122' 
DISL,ioos:station:DISL:CATA:1,2019-03-01T11:00:00Z,30.3085,-88.1395,0.0,2.4,77.0,99.0,'11111222,11111222,11144222' 
DISL,ioos:station:DISL:CATA:1,2019-03-01T11:30:00Z,30.3085,-88.1395,0.0,2.4,82.0,99.0,'11111222,11111222,11144222' 
DISL,ioos:station:DISL:CATA:1,2019-03-01T11:40:00Z,30.3085,-88.1395,0.0,2.61,81.3,-9999.0,'1111122,1111122,1111122' 
DISL,ioos:station:DISL:CATA:1,2019-03-01T12:00:00Z,30.3085,-88.1395,0.0,3.2,91.0,99.0,'11111222,11111222,11144222' 
DISL,ioos:station:DISL:CATA:1,2019-03-01T12:30:00Z,30.3085,-88.1395,0.0,3.7,106.0,99.0,'11111222,11111222,11144222' 
DISL,ioos:station:DISL:CATA:1,2019-03-01T12:40:00Z,30.3085,-88.1395,0.0,3.02,101.6,-9999.0,'1111122,1111122,1111122' 
DISL,ioos:station:DISL:CATA:1,2019-03-01T13:00:00Z,30.3085,-88.1395,0.0,2.8,125.0,99.0,'11111222,11111222,11144222' 
DISL,ioos:station:DISL:CATA:1,2019-03-01T13:30:00Z,30.3085,-88.1395,0.0,1.8,125.0,99.0,'11111222,11111222,11144222' 
DISL,ioos:station:DISL:CATA:1,2019-03-01T13:40:00Z,30.3085,-88.1395,0.0,2.25,124.2,-9999.0,'1111122,1111122,1111122' 
DISL,ioos:station:DISL:CATA:1,2019-03-01T14:00:00Z,30.3085,-88.1395,0.0,2.6,131.0,99.0,'11111222,11111222,11144222' 
DISL,ioos:station:DISL:CATA:1,2019-03-01T14:30:00Z,30.3085,-88.1395,0.0,2.6,144.0,99.0,'11111222,11111222,11144222' 
DISL,ioos:station:DISL:CATA:1,2019-03-01T14:40:00Z,30.3085,-88.1395,0.0,1.27,139.9,-9999.0,'1111122,1111122,1111122' 
DISL,ioos:station:DISL:CATA:1,2019-03-01T15:00:00Z,30.3085,-88.1395,0.0,1.8,177.0,99.0,'11111222,11111222,11144222' 
DISL,ioos:station:DISL:CATA:1,2019-03-01T15:30:00Z,30.3085,-88.1395,0.0,2.3,193.0,99.0,'11111222,11111222,11144222' 
DISL,ioos:station:DISL:CATA:1,2019-03-01T15:40:00Z,30.3085,-88.1395,0.0,2.56,192.8,-9999.0,'1111122,1111122,1111122' 
DISL,ioos:station:DISL:CATA:1,2019-03-01T16:00:00Z,30.3085,-88.1395,0.0,3.5,193.0,99.0,'11111222,11111222,11144222' 
DISL,ioos:station:DISL:CATA:1,2019-03-01T16:30:00Z,30.3085,-88.1395,0.0,4.8,188.0,99.0,'11111222,11111222,11144222' 
DISL,ioos:station:DISL:CATA:1,2019-03-01T16:40:00Z,30.3085,-88.1395,0.0,4.53,188.9,-9999.0,'1111122,1111122,1111122' 
DISL,ioos:station:DISL:CATA:1,2019-03-01T17:00:00Z,30.3085,-88.1395,0.0,4.0,195.0,99.0,'11111222,11111222,11144222' 
DISL,ioos:station:DISL:CATA:1,2019-03-01T17:30:00Z,30.3085,-88.1395,0.0,3.7,208.0,99.0,'11111222,11111222,11144222' 
DISL,ioos:station:DISL:CATA:1,2019-03-01T17:40:00Z,30.3085,-88.1395,0.0,4.14,197.0,-9999.0,'1111122,1111122,1111122' 
DISL,ioos:station:DISL:CATA:1,2019-03-01T18:00:00Z,30.3085,-88.1395,0.0,5.0,190.0,99.0,'11111222,11111222,11144222' 
DISL,ioos:station:DISL:CATA:1,2019-03-01T18:30:00Z,30.3085,-88.1395,0.0,5.8,189.0,99.0,'11111222,11111222,11144222' 
DISL,ioos:station:DISL:CATA:1,2019-03-01T18:40:00Z,30.3085,-88.1395,0.0,4.65,202.2,-9999.0,'1111122,1111122,1111122' 
DISL,ioos:station:DISL:CATA:1,2019-03-01T19:00:00Z,30.3085,-88.1395,0.0,4.8,207.0,99.0,'11111222,11111222,11144222' 
DISL,ioos:station:DISL:CATA:1,2019-03-01T19:30:00Z,30.3085,-88.1395,0.0,4.8,228.0,99.0,'11111222,11111222,11144222' 
DISL,ioos:station:DISL:CATA:1,2019-03-01T19:40:00Z,30.3085,-88.1395,0.0,4.49,230.3,-9999.0,'1111122,1111122,1111122' 
DISL,ioos:station:DISL:CATA:1,2019-03-01T20:00:00Z,30.3085,-88.1395,0.0,4.4,234.0,99.0,'11111222,11111222,11144222' 
DISL,ioos:station:DISL:CATA:1,2019-03-01T20:30:00Z,30.3085,-88.1395,0.0,3.4,229.0,99.0,'11111222,11111222,11144222' 
DISL,ioos:station:DISL:CATA:1,2019-03-01T20:40:00Z,30.3085,-88.1395,0.0,3.95,218.2,-9999.0,'1111122,1111122,1111122' 
DISL,ioos:station:DISL:CATA:1,2019-03-01T21:00:00Z,30.3085,-88.1395,0.0,4.2,206.0,99.0,'11111222,11111222,11144222' 
DISL,ioos:station:DISL:CATA:1,2019-03-01T21:30:00Z,30.3085,-88.1395,0.0,4.6,197.0,99.0,'11111222,11111222,11144222' 
DISL,ioos:station:DISL:CATA:1,2019-03-01T21:40:00Z,30.3085,-88.1395,0.0,3.81,204.7,-9999.0,'1111122,1111122,1111122' 
DISL,ioos:station:DISL:CATA:1,2019-03-01T22:00:00Z,30.3085,-88.1395,0.0,3.8,205.0,99.0,'11111222,11111222,11144222' 
DISL,ioos:station:DISL:CATA:1,2019-03-01T22:30:00Z,30.3085,-88.1395,0.0,3.3,200.0,99.0,'11111222,11111222,11144222' 
DISL,ioos:station:DISL:CATA:1,2019-03-01T22:40:00Z,30.3085,-88.1395,0.0,3.33,207.9,-9999.0,'1111122,1111122,1111122' 
DISL,ioos:station:DISL:CATA:1,2019-03-01T23:00:00Z,30.3085,-88.1395,0.0,3.8,199.0,99.0,'11111222,11111222,11144222' 
DISL,ioos:station:DISL:CATA:1,2019-03-01T23:30:00Z,30.3085,-88.1395,0.0,3.1,192.0,99.0,'11111222,11111222,11144222' 
DISL,ioos:station:DISL:CATA:1,2019-03-01T23:40:00Z,30.3085,-88.1395,0.0,3.76,184.3,-9999.0,'1111122,1111122,1111122' 
DISL,ioos:station:DISL:CATA:1,2019-03-02T00:00:00Z,30.3085,-88.1395,0.0,4.1,180.0,99.0,'11111222,11111222,11144222' 
DISL,ioos:station:DISL:CATA:1,2019-03-02T00:30:00Z,30.3085,-88.1395,0.0,3.7,176.0,99.0,'11111222,11111222,11144222' 
DISL,ioos:station:DISL:CATA:1,2019-03-02T00:40:00Z,30.3085,-88.1395,0.0,3.36,180.3,-9999.0,'1111122,1111122,1111122' 
DISL,ioos:station:DISL:CATA:1,2019-03-02T01:00:00Z,30.3085,-88.1395,0.0,3.6,181.0,99.0,'11111222,11111222,11144222' 
DISL,ioos:station:DISL:CATA:1,2019-03-02T01:30:00Z,30.3085,-88.1395,0.0,5.1,163.0,99.0,'11111222,11111222,11144222' 
DISL,ioos:station:DISL:CATA:1,2019-03-02T01:40:00Z,30.3085,-88.1395,0.0,6.37,162.7,-9999.0,'1111122,1111122,1111122' 
DISL,ioos:station:DISL:CATA:1,2019-03-02T02:00:00Z,30.3085,-88.1395,0.0,5.7,169.0,99.0,'11111222,11111222,11144222' 
DISL,ioos:station:DISL:CATA:1,2019-03-02T02:30:00Z,30.3085,-88.1395,0.0,3.8,172.0,99.0,'11111222,11111222,11144222' 
DISL,ioos:station:DISL:CATA:1,2019-03-02T02:40:00Z,30.3085,-88.1395,0.0,3.7,176.2,-9999.0,'1111122,1111122,1111122' 
DISL,ioos:station:DISL:CATA:1,2019-03-02T03:00:00Z,30.3085,-88.1395,0.0,4.2,185.0,99.0,'11111222,11111222,11144222' 
DISL,ioos:station:DISL:CATA:1,2019-03-02T03:30:00Z,30.3085,-88.1395,0.0,6.2,162.0,99.0,'11111222,11111222,11144222' 
DISL,ioos:station:DISL:CATA:1,2019-03-02T03:40:00Z,30.3085,-88.1395,0.0,6.04,162.4,-9999.0,'1111122,1111122,1111122' 
DISL,ioos:station:DISL:CATA:1,2019-03-02T04:00:00Z,30.3085,-88.1395,0.0,5.4,163.0,99.0,'11111222,11111222,11144222' 
DISL,ioos:station:DISL:CATA:1,2019-03-02T04:30:00Z,30.3085,-88.1395,0.0,5.4,167.0,99.0,'11111222,11111222,11144222' 
DISL,ioos:station:DISL:CATA:1,2019-03-02T04:40:00Z,30.3085,-88.1395,0.0,5.29,169.4,-9999.0,'1111122,1111122,1111122' 
DISL,ioos:station:DISL:CATA:1,2019-03-02T05:00:00Z,30.3085,-88.1395,0.0,6.4,166.0,99.0,'11111222,11111222,11144222' 
DISL,ioos:station:DISL:CATA:1,2019-03-02T05:30:00Z,30.3085,-88.1395,0.0,6.5,155.0,99.0,'11111222,11111222,11144222' 
DISL,ioos:station:DISL:CATA:1,2019-03-02T05:40:00Z,30.3085,-88.1395,0.0,5.85,155.8,-9999.0,'1111122,1111122,1111122' 
DISL,ioos:station:DISL:CATA:1,2019-03-02T06:30:00Z,30.3085,-88.1395,0.0,3.3,157.0,99.0,'11111222,11111222,11144222' 
DISL,ioos:station:DISL:CATA:1,2019-03-02T06:40:00Z,30.3085,-88.1395,0.0,3.12,158.9,-9999.0,'1111122,1111122,1111122' 
DISL,ioos:station:DISL:CATA:1,2019-03-02T07:00:00Z,30.3085,-88.1395,0.0,2.7,155.0,99.0,'11111222,11111222,11144222' 
DISL,ioos:station:DISL:CATA:1,2019-03-02T07:30:00Z,30.3085,-88.1395,0.0,2.9,153.0,99.0,'11111222,11111222,11144222' 
DISL,ioos:station:DISL:CATA:1,2019-03-02T07:40:00Z,30.3085,-88.1395,0.0,3.91,155.3,-9999.0,'1111122,1111122,1111122' 
DISL,ioos:station:DISL:CATA:1,2019-03-02T08:00:00Z,30.3085,-88.1395,0.0,4.0,161.0,99.0,'11111222,11111222,11144222' 
DISL,ioos:station:DISL:CATA:1,2019-03-02T08:30:00Z,30.3085,-88.1395,0.0,3.8,182.0,99.0,'11111222,11111222,11144222' 
DISL,ioos:station:DISL:CATA:1,2019-03-02T08:40:00Z,30.3085,-88.1395,0.0,3.43,180.1,-9999.0,'1111122,1111122,1111122' 
DISL,ioos:station:DISL:CATA:1,2019-03-02T09:00:00Z,30.3085,-88.1395,0.0,2.3,195.0,99.0,'11111222,11111222,11144222' 
DISL,ioos:station:DISL:CATA:1,2019-03-02T09:30:00Z,30.3085,-88.1395,0.0,2.8,240.0,99.0,'11111222,11111222,11144222' 
DISL,ioos:station:DISL:CATA:1,2019-03-02T09:40:00Z,30.3085,-88.1395,0.0,2.71,250.9,-9999.0,'1111122,1111122,1111122' 
DISL,ioos:station:DISL:CATA:1,2019-03-02T10:00:00Z,30.3085,-88.1395,0.0,2.1,263.0,99.0,'11111222,11111222,11144222' 
DISL,ioos:station:DISL:CATA:1,2019-03-02T10:30:00Z,30.3085,-88.1395,0.0,2.6,305.0,99.0,'11111222,11111222,11144222' 
DISL,ioos:station:DISL:CATA:1,2019-03-02T10:40:00Z,30.3085,-88.1395,0.0,2.8,320.8,-9999.0,'1111122,1111122,1111122' 
DISL,ioos:station:DISL:CATA:1,2019-03-02T11:00:00Z,30.3085,-88.1395,0.0,2.7,330.0,99.0,'11111222,11111222,11144222' 
DISL,ioos:station:DISL:CATA:1,2019-03-02T11:30:00Z,30.3085,-88.1395,0.0,2.2,344.0,99.0,'11111222,11111222,11144222' 
DISL,ioos:station:DISL:CATA:1,2019-03-02T11:40:00Z,30.3085,-88.1395,0.0,1.43,353.1,-9999.0,'1111122,1111122,1111122' 
DISL,ioos:station:DISL:CATA:1,2019-03-02T12:00:00Z,30.3085,-88.1395,0.0,2.0,360.0,99.0,'11111222,11144222,11144222' 
DISL,ioos:station:DISL:CATA:1,2019-03-02T12:30:00Z,30.3085,-88.1395,0.0,2.2,18.0,99.0,'11111222,11111222,11144222' 
DISL,ioos:station:DISL:CATA:1,2019-03-02T12:40:00Z,30.3085,-88.1395,0.0,1.73,32.7,-9999.0,'1111122,1111122,1111122' 
DISL,ioos:station:DISL:CATA:1,2019-03-02T13:00:00Z,30.3085,-88.1395,0.0,1.1,37.0,99.0,'11111222,11111222,11144222' 
DISL,ioos:station:DISL:CATA:1,2019-03-02T13:30:00Z,30.3085,-88.1395,0.0,2.1,111.0,99.0,'11111222,11111222,11144222' 
DISL,ioos:station:DISL:CATA:1,2019-03-02T13:40:00Z,30.3085,-88.1395,0.0,2.89,118.3,-9999.0,'1111122,1111122,1111122' 
DISL,ioos:station:DISL:CATA:1,2019-03-02T14:00:00Z,30.3085,-88.1395,0.0,1.6,103.0,99.0,'11111222,11111222,11144222' 
DISL,ioos:station:DISL:CATA:1,2019-03-02T14:30:00Z,30.3085,-88.1395,0.0,1.4,240.0,99.0,'11111222,11111222,11144222' 
DISL,ioos:station:DISL:CATA:1,2019-03-02T14:40:00Z,30.3085,-88.1395,0.0,1.63,229.2,-9999.0,'1111122,1111122,1111122' 
DISL,ioos:station:DISL:CATA:1,2019-03-02T15:00:00Z,30.3085,-88.1395,0.0,1.3,236.0,99.0,'11111222,11111222,11144222' 
DISL,ioos:station:DISL:CATA:1,2019-03-02T15:30:00Z,30.3085,-88.1395,0.0,1.8,265.0,99.0,'11111222,11111222,11144222' 
DISL,ioos:station:DISL:CATA:1,2019-03-02T15:40:00Z,30.3085,-88.1395,0.0,1.99,272.1,-9999.0,'1111122,1111122,1111122' 
DISL,ioos:station:DISL:CATA:1,2019-03-02T16:00:00Z,30.3085,-88.1395,0.0,2.3,253.0,99.0,'11111222,11111222,11144222' 
DISL,ioos:station:DISL:CATA:1,2019-03-02T16:30:00Z,30.3085,-88.1395,0.0,1.0,67.0,99.0,'11111222,11111222,11144222' 
DISL,ioos:station:DISL:CATA:1,2019-03-02T16:40:00Z,30.3085,-88.1395,0.0,1.61,65.5,-9999.0,'1111122,1111122,1111122' 
DISL,ioos:station:DISL:CATA:1,2019-03-02T17:00:00Z,30.3085,-88.1395,0.0,2.3,60.0,99.0,'11111222,11111222,11144222' 
DISL,ioos:station:DISL:CATA:1,2019-03-02T17:30:00Z,30.3085,-88.1395,0.0,2.2,75.0,99.0,'11111222,11111222,11144222' 
DISL,ioos:station:DISL:CATA:1,2019-03-02T17:40:00Z,30.3085,-88.1395,0.0,2.01,66.73,-9999.0,'1111122,1111122,1111122' 
DISL,ioos:station:DISL:CATA:1,2019-03-02T18:00:00Z,30.3085,-88.1395,0.0,1.7,72.0,99.0,'11111222,11111222,11144222' 
DISL,ioos:station:DISL:CATA:1,2019-03-02T18:30:00Z,30.3085,-88.1395,0.0,1.3,81.0,99.0,'11111222,11111222,11144222' 
DISL,ioos:station:DISL:CATA:1,2019-03-02T18:40:00Z,30.3085,-88.1395,0.0,1.45,61.46,-9999.0,'1111122,1111122,1111122' 
DISL,ioos:station:DISL:CATA:1,2019-03-02T19:00:00Z,30.3085,-88.1395,0.0,1.4,82.0,99.0,'11111222,11111222,11144222' 
DISL,ioos:station:DISL:CATA:1,2019-03-02T19:30:00Z,30.3085,-88.1395,0.0,0.9,97.0,99.0,'11111222,11111222,11144222' 
DISL,ioos:station:DISL:CATA:1,2019-03-02T19:40:00Z,30.3085,-88.1395,0.0,1.23,106.9,-9999.0,'1111122,1111122,1111122' 
DISL,ioos:station:DISL:CATA:1,2019-03-02T20:00:00Z,30.3085,-88.1395,0.0,0.0,71.0,99.0,'11111222,11111222,11144222' 
DISL,ioos:station:DISL:CATA:1,2019-03-02T20:30:00Z,30.3085,-88.1395,0.0,0.6,89.0,99.0,'11111222,11111222,11144222' 
DISL,ioos:station:DISL:CATA:1,2019-03-02T20:40:00Z,30.3085,-88.1395,0.0,0.66,66.83,-9999.0,'1111122,1111122,1111122' 
DISL,ioos:station:DISL:CATA:1,2019-03-02T21:00:00Z,30.3085,-88.1395,0.0,1.6,28.0,99.0,'11111222,11111222,11144222' 
DISL,ioos:station:DISL:CATA:1,2019-03-02T21:30:00Z,30.3085,-88.1395,0.0,0.7,63.0,99.0,'11111222,11111222,11144222' 
DISL,ioos:station:DISL:CATA:1,2019-03-02T21:40:00Z,30.3085,-88.1395,0.0,0.37,102.6,-9999.0,'1111122,1111122,1111122' 
DISL,ioos:station:DISL:CATA:1,2019-03-02T22:00:00Z,30.3085,-88.1395,0.0,0.4,333.0,99.0,'11111222,11111222,11144222' 
DISL,ioos:station:DISL:CATA:1,2019-03-02T22:30:00Z,30.3085,-88.1395,0.0,1.1,52.0,99.0,'11111222,11111222,11144222' 
DISL,ioos:station:DISL:CATA:1,2019-03-02T22:40:00Z,30.3085,-88.1395,0.0,1.11,85.3,-9999.0,'1111122,1111122,1111122' 
DISL,ioos:station:DISL:CATA:1,2019-03-02T23:00:00Z,30.3085,-88.1395,0.0,1.1,74.0,99.0,'11111222,11111222,11144222' 
DISL,ioos:station:DISL:CATA:1,2019-03-02T23:30:00Z,30.3085,-88.1395,0.0,2.5,18.0,99.0,'11111222,11111222,11144222' 
DISL,ioos:station:DISL:CATA:1,2019-03-02T23:40:00Z,30.3085,-88.1395,0.0,2.5,25.8,-9999.0,'1111122,1111122,1111122' 
DISL,ioos:station:DISL:CATA:1,2019-03-03T00:00:00Z,30.3085,-88.1395,0.0,2.2,47.0,99.0,'11111222,11111222,11144222' 
DISL,ioos:station:DISL:CATA:1,2019-03-03T00:30:00Z,30.3085,-88.1395,0.0,1.8,16.0,99.0,'11111222,11111222,11144222' 
DISL,ioos:station:DISL:CATA:1,2019-03-03T00:40:00Z,30.3085,-88.1395,0.0,1.35,33.41,-9999.0,'1111122,1111122,1111122' 
DISL,ioos:station:DISL:CATA:1,2019-03-03T01:00:00Z,30.3085,-88.1395,0.0,1.6,25.0,99.0,'11111222,11111222,11144222' 
DISL,ioos:station:DISL:CATA:1,2019-03-03T01:30:00Z,30.3085,-88.1395,0.0,2.1,16.0,99.0,'11111222,11111222,11144222' 
DISL,ioos:station:DISL:CATA:1,2019-03-03T01:40:00Z,30.3085,-88.1395,0.0,2.45,2.398,-9999.0,'1111122,1111122,1111122' 
DISL,ioos:station:DISL:CATA:1,2019-03-03T02:00:00Z,30.3085,-88.1395,0.0,1.5,19.0,99.0,'11111222,11111222,11144222' 
DISL,ioos:station:DISL:CATA:1,2019-03-03T02:30:00Z,30.3085,-88.1395,0.0,4.1,21.0,99.0,'11111222,11111222,11144222' 
DISL,ioos:station:DISL:CATA:1,2019-03-03T02:40:00Z,30.3085,-88.1395,0.0,4.55,20.42,-9999.0,'1111122,1111122,1111122' 
DISL,ioos:station:DISL:CATA:1,2019-03-03T03:00:00Z,30.3085,-88.1395,0.0,5.3,19.0,99.0,'11111222,11111222,11144222' 
DISL,ioos:station:DISL:CATA:1,2019-03-03T03:30:00Z,30.3085,-88.1395,0.0,4.2,10.0,99.0,'11111222,11111222,11144222' 
DISL,ioos:station:DISL:CATA:1,2019-03-03T03:40:00Z,30.3085,-88.1395,0.0,4.35,10.61,-9999.0,'1111122,1111122,1111122' 
DISL,ioos:station:DISL:CATA:1,2019-03-03T04:00:00Z,30.3085,-88.1395,0.0,4.2,9.0,99.0,'11111222,11111222,11144222' 
DISL,ioos:station:DISL:CATA:1,2019-03-03T04:30:00Z,30.3085,-88.1395,0.0,3.8,0.0,99.0,'11111222,11111222,11144222' 
DISL,ioos:station:DISL:CATA:1,2019-03-03T04:40:00Z,30.3085,-88.1395,0.0,4.47,12.65,-9999.0,'1111122,1111122,1111122' 
DISL,ioos:station:DISL:CATA:1,2019-03-03T05:00:00Z,30.3085,-88.1395,0.0,5.5,11.0,99.0,'11111222,11111222,11144222' 
DISL,ioos:station:DISL:CATA:1,2019-03-03T05:30:00Z,30.3085,-88.1395,0.0,5.2,21.0,99.0,'11111222,11111222,11144222' 
DISL,ioos:station:DISL:CATA:1,2019-03-03T05:40:00Z,30.3085,-88.1395,0.0,5.09,23.91,-9999.0,'1111122,1111122,1111122' 
DISL,ioos:station:DISL:CATA:1,2019-03-03T06:30:00Z,30.3085,-88.1395,0.0,3.9,27.0,99.0,'11111222,11111222,11144222' 
DISL,ioos:station:DISL:CATA:1,2019-03-03T06:40:00Z,30.3085,-88.1395,0.0,3.79,29.57,-9999.0,'1111122,1111122,1111122' 
DISL,ioos:station:DISL:CATA:1,2019-03-03T07:00:00Z,30.3085,-88.1395,0.0,3.6,32.0,99.0,'11111222,11111222,11144222' 
DISL,ioos:station:DISL:CATA:1,2019-03-03T07:30:00Z,30.3085,-88.1395,0.0,3.1,33.0,99.0,'11111222,11111222,11144222' 
DISL,ioos:station:DISL:CATA:1,2019-03-03T07:40:00Z,30.3085,-88.1395,0.0,3.41,25.56,-9999.0,'1111122,1111122,1111122' 
DISL,ioos:station:DISL:CATA:1,2019-03-03T08:00:00Z,30.3085,-88.1395,0.0,3.8,26.0,99.0,'11111222,11111222,11144222' 
DISL,ioos:station:DISL:CATA:1,2019-03-03T08:30:00Z,30.3085,-88.1395,0.0,4.3,26.0,99.0,'11111222,11111222,11144222' 
DISL,ioos:station:DISL:CATA:1,2019-03-03T08:40:00Z,30.3085,-88.1395,0.0,4.36,36.44,-9999.0,'1111122,1111122,1111122' 
DISL,ioos:station:DISL:CATA:1,2019-03-03T09:00:00Z,30.3085,-88.1395,0.0,4.0,30.0,99.0,'11111222,11111222,11144222' 
DISL,ioos:station:DISL:CATA:1,2019-03-03T09:30:00Z,30.3085,-88.1395,0.0,3.7,28.0,99.0,'11111222,11111222,11144222' 
DISL,ioos:station:DISL:CATA:1,2019-03-03T09:40:00Z,30.3085,-88.1395,0.0,3.64,28.48,-9999.0,'1111122,1111122,1111122' 
DISL,ioos:station:DISL:CATA:1,2019-03-03T10:00:00Z,30.3085,-88.1395,0.0,4.1,28.0,99.0,'11111222,11111222,11144222' 
DISL,ioos:station:DISL:CATA:1,2019-03-03T10:30:00Z,30.3085,-88.1395,0.0,4.0,26.0,99.0,'11111222,11111222,11144222' 
DISL,ioos:station:DISL:CATA:1,2019-03-03T10:40:00Z,30.3085,-88.1395,0.0,4.19,26.99,-9999.0,'1111122,1111122,1111122' 
DISL,ioos:station:DISL:CATA:1,2019-03-03T11:00:00Z,30.3085,-88.1395,0.0,4.9,26.0,99.0,'11111222,11111222,11144222' 
DISL,ioos:station:DISL:CATA:1,2019-03-03T11:30:00Z,30.3085,-88.1395,0.0,4.0,42.0,99.0,'11111222,11111222,11144222' 
DISL,ioos:station:DISL:CATA:1,2019-03-03T11:40:00Z,30.3085,-88.1395,0.0,3.95,47.98,-9999.0,'1111122,1111122,1111122' 
DISL,ioos:station:DISL:CATA:1,2019-03-03T12:00:00Z,30.3085,-88.1395,0.0,3.5,54.0,99.0,'11111222,11111222,11144222' 
DISL,ioos:station:DISL:CATA:1,2019-03-03T12:30:00Z,30.3085,-88.1395,0.0,2.5,75.0,99.0,'11111222,11111222,11144222' 
DISL,ioos:station:DISL:CATA:1,2019-03-03T12:40:00Z,30.3085,-88.1395,0.0,2.22,82.4,-9999.0,'1111122,1111122,1111122' 
DISL,ioos:station:DISL:CATA:1,2019-03-03T13:00:00Z,30.3085,-88.1395,0.0,3.2,108.0,99.0,'11111222,11111222,11144222' 
DISL,ioos:station:DISL:CATA:1,2019-03-03T13:30:00Z,30.3085,-88.1395,0.0,4.2,116.0,99.0,'11111222,11111222,11144222' 
DISL,ioos:station:DISL:CATA:1,2019-03-03T13:40:00Z,30.3085,-88.1395,0.0,3.96,119.1,-9999.0,'1111122,1111122,1111122' 
DISL,ioos:station:DISL:CATA:1,2019-03-03T14:00:00Z,30.3085,-88.1395,0.0,3.4,118.0,99.0,'11111222,11111222,11144222' 
DISL,ioos:station:DISL:CATA:1,2019-03-03T14:30:00Z,30.3085,-88.1395,0.0,3.8,120.0,99.0,'11111222,11111222,11144222' 
DISL,ioos:station:DISL:CATA:1,2019-03-03T14:40:00Z,30.3085,-88.1395,0.0,3.86,127.0,-9999.0,'1111122,1111122,1111122' 
DISL,ioos:station:DISL:CATA:1,2019-03-03T15:00:00Z,30.3085,-88.1395,0.0,5.2,141.0,99.0,'11111222,11111222,11144222' 
DISL,ioos:station:DISL:CATA:1,2019-03-03T15:30:00Z,30.3085,-88.1395,0.0,6.3,151.0,99.0,'11111222,11111222,11144222' 
DISL,ioos:station:DISL:CATA:1,2019-03-03T15:40:00Z,30.3085,-88.1395,0.0,7.15,153.4,-9999.0,'1111122,1111122,1111122' 
DISL,ioos:station:DISL:CATA:1,2019-03-03T16:00:00Z,30.3085,-88.1395,0.0,7.3,155.0,99.0,'11111222,11111222,11144222' 
DISL,ioos:station:DISL:CATA:1,2019-03-03T16:30:00Z,30.3085,-88.1395,0.0,8.8,160.0,99.0,'11111222,11111222,11144222' 
DISL,ioos:station:DISL:CATA:1,2019-03-03T16:40:00Z,30.3085,-88.1395,0.0,9.38,161.7,-9999.0,'1111122,1111122,1111122' 
DISL,ioos:station:DISL:CATA:1,2019-03-03T17:00:00Z,30.3085,-88.1395,0.0,8.7,174.0,99.0,'11111222,11111222,11144222' 
DISL,ioos:station:DISL:CATA:1,2019-03-03T17:30:00Z,30.3085,-88.1395,0.0,8.9,186.0,99.0,'11111222,11111222,11144222' 
DISL,ioos:station:DISL:CATA:1,2019-03-03T17:40:00Z,30.3085,-88.1395,0.0,8.83,189.5,-9999.0,'1111122,1111122,1111122' 
DISL,ioos:station:DISL:CATA:1,2019-03-03T18:00:00Z,30.3085,-88.1395,0.0,8.9,186.0,99.0,'11111222,11111222,11144222' 
DISL,ioos:station:DISL:CATA:1,2019-03-03T18:30:00Z,30.3085,-88.1395,0.0,11.1,188.0,99.0,'11111222,11111222,11144222' 
DISL,ioos:station:DISL:CATA:1,2019-03-03T18:40:00Z,30.3085,-88.1395,0.0,11.26,190.7,-9999.0,'1111122,1111122,1111122' 
DISL,ioos:station:DISL:CATA:1,2019-03-03T19:00:00Z,30.3085,-88.1395,0.0,11.0,198.0,99.0,'11111222,11111222,11144222' 
DISL,ioos:station:DISL:CATA:1,2019-03-03T19:30:00Z,30.3085,-88.1395,0.0,9.9,209.0,99.0,'11111222,11111222,11144222' 
DISL,ioos:station:DISL:CATA:1,2019-03-03T19:40:00Z,30.3085,-88.1395,0.0,9.53,208.6,-9999.0,'1111122,1111122,1111122' 
DISL,ioos:station:DISL:CATA:1,2019-03-03T20:00:00Z,30.3085,-88.1395,0.0,8.5,219.0,99.0,'11111222,11111222,11144222' 
DISL,ioos:station:DISL:CATA:1,2019-03-03T20:30:00Z,30.3085,-88.1395,0.0,7.9,238.0,99.0,'11111222,11111222,11144222' 
DISL,ioos:station:DISL:CATA:1,2019-03-03T20:40:00Z,30.3085,-88.1395,0.0,7.2,229.3,-9999.0,'1111122,1111122,1111122' 
DISL,ioos:station:DISL:CATA:1,2019-03-03T21:00:00Z,30.3085,-88.1395,0.0,8.7,225.0,99.0,'11111222,11111222,11144222' 
DISL,ioos:station:DISL:CATA:1,2019-03-03T21:30:00Z,30.3085,-88.1395,0.0,8.2,228.0,99.0,'11111222,11111222,11144222' 
DISL,ioos:station:DISL:CATA:1,2019-03-03T21:40:00Z,30.3085,-88.1395,0.0,8.53,225.0,-9999.0,'1111122,1111122,1111122' 